Home > Weather > Kinshasa > Past weeks

Flag for Dem. Rep. Congo Weather for the Past 2 Weeks in Kinshasa, Dem. Rep. Congo

Now
79 °F

Scattered clouds.


Feels Like: 81 °F
Forecast: 77 / 88 °F
Wind: 3 mph from West

Location: Brazzaville / Maya-Maya

Current Time: Feb 9, 2016 at 11:40:38 AM

Latest Report: Feb 9, 2016 at 10:00 AM


Visibility: 5 mi

Pressure: 30.01 "Hg

Humidity: 74%

Dew point: 70 °F

Location of KinshasaLocation

Historic Weather in Kinshasa — Graph

°F

Kinshasa Temperature Yesterday

Maximum temperature yesterday: 90 °F (at 4:00 PM)
Minimum temperature yesterday: 77 °F (at 4:00 AM)
Average temperature yesterday: 82 °F

High & Low Weather Summary for the Past Weeks

 TemperatureHumidityPressure
High95 °F (Jan 30, 3:00 PM)100% (Feb 5, 11:48 AM)30.07 "Hg (Feb 5, 11:48 AM)
Low72 °F (Feb 5, 11:48 AM)39% (Jan 30, 3:00 PM)29.77 "Hg (Jan 30, 4:00 PM)
Average82 °F74%29.92 "Hg
* Reported Jan 25 10:00 AM — Feb 9 10:00 AM, Kinshasa, Weather by CustomWeather, © 2016

Note: Actual official high and low records may vary slightly from our data, if they occured in-between our weather recording intervals... More about our weather records

Advertising

Kinshasa Weather History for the Previous 24 Hours

 ConditionsComfort  
Time TempWeatherWind HumidityBarometerVisibility
10:00 AM
Tue, Feb 9
79 °FScattered clouds.3 mph74%30.01 "Hg5 mi
9:00 AM77 °FPartly sunny.5 mph79%30.01 "Hg5 mi
8:00 AM75 °FPartly sunny.8 mph83%30.01 "Hg5 mi
7:00 AM75 °FPartly sunny.9 mph83%29.98 "Hg5 mi
6:00 AM75 °FPassing clouds.12 mph83%29.95 "Hg5 mi
5:00 AM77 °FPassing clouds.8 mph94%29.92 "Hg6 mi
4:00 AM77 °FPassing clouds.5 mph94%29.92 "Hg6 mi
3:00 AM79 °FPassing clouds.3 mph89%29.92 "Hg6 mi
2:00 AM77 °FPassing clouds.5 mph94%29.92 "Hg5 mi
1:00 AM79 °FClear.3 mph89%29.95 "Hg5 mi
12:00 AM79 °FClear.5 mph89%29.95 "Hg5 mi
11:00 PM
Mon, Feb 8
81 °FClear.1 mph84%29.98 "Hg5 mi
10:00 PM81 °FClear.No wind84%29.95 "Hg5 mi
9:00 PM82 °FClear.No wind79%29.92 "Hg5 mi
8:00 PM84 °FClear.No wind74%29.92 "Hg5 mi
7:00 PM84 °FPassing clouds.1 mph74%29.89 "Hg6 mi
6:00 PM88 °FScattered clouds.5 mph62%29.86 "Hg6 mi
5:00 PM88 °FScattered clouds.9 mph66%29.83 "Hg6 mi
4:00 PM90 °FPartly sunny.10 mph59%29.86 "Hg6 mi
3:00 PM88 °FBroken clouds.13 mph62%29.86 "HgN/A
2:00 PM88 °FBroken clouds.8 mph66%29.89 "HgN/A
1:00 PM88 °FPartly sunny.5 mph66%29.92 "HgN/A
12:00 PM86 °FPartly sunny.7 mph70%29.95 "HgN/A
11:00 AM86 °FScattered clouds.7 mph70%29.98 "Hg5 mi
Weather by CustomWeather, © 2016

See weather overviewHow to use our weather pages